Location: Nelson
(41.2830°S, 173.2830°E)
Time: 19:12:27
(UTC+12:00)

Cosmos 1992 Rocket - Pass Details

Date: 14 May 2021
Orbit: 758 x 766 km, 74.0° (Epoch: 19 June)

Event Time Altitude Azimuth Distance (km) Brightness Sun altitude
Rises 17:58:42 0° 335° (NNW) 3,228 7.9 -7.8°
Reaches altitude 10° 18:01:05 10° 332° (NNW) 2,310 7.2 -8.2°
Maximum altitude 18:06:18 67° 249° (WSW) 839 4.4 -9.1°
Drops below altitude 10° 18:11:36 10° 166° (SSE) 2,337 6.2 -10.1°
Sets 18:14:01 0° 162° (SSE) 3,269 6.9 -10.5°
